Terminal Aerodrome Forecast
Issued by NWS Knoxville/Tri Cities, TN

Home | Current Version | Previous Version | Text Only | Print | Product List | Glossary On
Versions: 1 2 3 4 5 6 7 8 9 10 11 12 13 14 15 16 17 18 19 20 21 22 23 24 25 26 27
000
FTUS44 KMRX 221722
TAFCHA
TAF
KCHA 221722Z 2218/2318 27007KT P6SM SCT050 BKN250
     FM230100 00000KT P6SM SCT060 BKN250
     FM231500 33005KT P6SM SCT040 BKN250=

USA.gov is the U.S. government's official web portal to all federal, state and local government web resources and services.